Location: DARK SKY Beskydy - Park tmavé oblohy, www.darkskybeskydy.cz
(49.4926°N, 18.5016°E)
Time: 08:19:30
(UTC+01:00)

BlueWalker 3 - Pass Details

Date: 08 December 2022
Orbit: 499 x 517 km, 53.2° (Epoch: 29 January)

Event Time Altitude Azimuth Distance (km) Brightness Sun altitude
Rises 16:45:24 0° 290° (WNW) 2,633 6.3 -9.1°
Reaches altitude 10° 16:47:38 10° 294° (WNW) 1,742 5.3 -9.4°
Maximum altitude 16:51:33 65° 17° (NNE) 567 2.0 -10.0°
Enters shadow 16:55:18 11° 99° (E) 1,671 4.1 -10.6°
